Papa, Hungary

7:12 PM CET on November 18, 2017 (GMT +0100)
Papa

Weather History for LHPA - September, 2013

Change the Weather History Date:

Thursday, September 12, 2013

  Actual Average Record
Temperature  
Mean Temperature 61 °F -  
Max Temperature 69 °F - - ()
Min Temperature 53 °F - - ()
Degree Days  
Heating Degree Days 4    
Growing Degree Days 11 (Base 50)    
Moisture  
Dew Point 51 °F    
Average Humidity 77    
Maximum Humidity 100    
Minimum Humidity 43    
Precipitation  
Precipitation 0.00 in - - ()
Sea Level Pressure  
Sea Level Pressure 29.97 in    
Wind  
Wind Speed 3 mph ()    
Max Wind Speed 13 mph    
Max Gust Speed 27 mph    
Visibility 6.2 miles    
Events Rain , Thunderstorm    
T = Trace of Precipitation, MM = Missing Value Source: Averaged Metar Reports

Daily Weather History Graph

Daily Weather History Graph

Search for Another Location

Airport or City:

Trip Planner

Search our weather history database for the weather conditions in past years. The results will help you decide how hot, cold, wet, or windy it might be!

Date:

Astronomy

Sep. 12, 2013 Rise Set
Actual Time 6:23 AM CEST 7:08 PM CEST
Civil Twilight 5:52 AM CEST 7:38 PM CEST
Nautical Twilight 5:15 AM CEST 8:15 PM CEST
Astronomical Twilight 4:37 AM CEST 8:53 PM CEST
Moon 2:00 PM CEST (9/12) 11:19 PM CEST (9/12)
Length of Visible Light 13h 46m
Length of Day
12h 44m
Waxing Crescent, 47% of the Moon is Illuminated
Sep 12
Waxing Crescent
Sep 12
First Quarter
Sep 19
Full
Sep 27
Last Quarter
Oct 5
New

Hourly Weather History & Observations

Time (CEST) Temp. Dew Point Humidity Pressure Visibility Wind Dir Wind Speed Gust Speed Precip Events Conditions
12:15 AM 57.2 °F 53.6 °F 88% 29.98 in - West 2.2 mph - N/A   Clear
12:24 AM 57.2 °F 53.6 °F 88% 29.98 in 6.2 mi West 2.2 mph - N/A Rain Light Rain
12:45 AM 57.2 °F 53.6 °F 88% 29.98 in 6.2 mi WSW 4.5 mph - N/A Rain Light Rain
1:15 AM 57.2 °F 53.6 °F 88% 29.98 in 6.2 mi West 4.5 mph - N/A Rain Light Rain
1:45 AM 55.4 °F 53.6 °F 94% 29.98 in 6.2 mi SSE 2.2 mph - N/A Rain Light Rain
2:14 AM 55.4 °F 53.6 °F 94% 29.98 in - West 2.2 mph - N/A   Clear
2:15 AM 55.4 °F 53.6 °F 94% 29.98 in - West 2.2 mph - N/A   Clear
2:45 AM 55.4 °F 53.6 °F 94% 29.98 in - South 2.2 mph - N/A   Clear
3:15 AM 53.6 °F 53.6 °F 100% 29.98 in - South 2.2 mph - N/A   Clear
3:45 AM 53.6 °F 53.6 °F 100% 29.98 in - SW 2.2 mph - N/A   Clear
4:15 AM 53.6 °F 53.6 °F 100% 29.98 in - WSW 2.2 mph - N/A   Clear
4:45 AM 53.6 °F 53.6 °F 100% 29.98 in - South 2.2 mph - N/A   Clear
5:15 AM 53.6 °F 53.6 °F 100% 29.98 in - South 2.2 mph - N/A   Clear
5:45 AM 53.6 °F 51.8 °F 94% 29.98 in - SSE 2.2 mph - N/A   Clear
6:15 AM 53.6 °F 53.6 °F 100% 29.98 in - Calm Calm - N/A   Clear
6:45 AM 53.6 °F 53.6 °F 100% 29.98 in - SE 2.2 mph - N/A   Clear
7:15 AM 53.6 °F 53.6 °F 100% 29.98 in - Calm Calm - N/A   Clear
7:45 AM 55.4 °F 53.6 °F 94% 29.98 in - SSE 2.2 mph - N/A   Clear
8:15 AM 57.2 °F 51.8 °F 82% 29.98 in - SE 2.2 mph - N/A   Clear
8:45 AM 59.0 °F 51.8 °F 77% 29.98 in - East 2.2 mph - N/A   Clear
9:15 AM 60.8 °F 50.0 °F 68% 29.98 in - NNE 2.2 mph - N/A   Clear
9:45 AM 62.6 °F 50.0 °F 63% 29.98 in - NNE 4.5 mph - N/A   Clear
10:15 AM 62.6 °F 46.4 °F 55% 29.98 in - NE 2.2 mph - N/A   Clear
10:45 AM 64.4 °F 48.2 °F 56% 29.98 in 6.2 mi East 2.2 mph - N/A   Mostly Cloudy
11:15 AM 64.4 °F 48.2 °F 56% 29.98 in 6.2 mi West 2.2 mph - N/A   Mostly Cloudy
11:45 AM 66.2 °F 46.4 °F 49% 29.98 in 6.2 mi NNE 4.5 mph - N/A   Mostly Cloudy
12:15 PM 66.2 °F 44.6 °F 46% 29.95 in 6.2 mi North 2.2 mph - N/A   Mostly Cloudy
12:45 PM 68.0 °F 46.4 °F 46% 29.95 in 6.2 mi ENE 2.2 mph - N/A   Mostly Cloudy
1:15 PM 68.0 °F 44.6 °F 43% 29.95 in 6.2 mi East 4.5 mph - N/A   Mostly Cloudy
1:45 PM 69.8 °F 46.4 °F 43% 29.95 in - SW 2.2 mph - N/A   Clear
2:15 PM 68.0 °F 44.6 °F 43% 29.95 in - SSE 2.2 mph - N/A   Clear
2:45 PM 69.8 °F 46.4 °F 43% 29.95 in 6.2 mi South 6.7 mph - N/A   Mostly Cloudy
3:15 PM 68.0 °F 44.6 °F 43% 29.92 in 6.2 mi ESE 2.2 mph - N/A   Mostly Cloudy
3:45 PM 68.0 °F 44.6 °F 43% 29.92 in 6.2 mi East 4.5 mph - N/A   Mostly Cloudy
4:15 PM 68.0 °F 48.2 °F 49% 29.92 in 6.2 mi East 4.5 mph - N/A   Mostly Cloudy
4:45 PM 66.2 °F 48.2 °F 52% 29.92 in 6.2 mi SSE 4.5 mph - N/A   Mostly Cloudy
5:15 PM 66.2 °F 50.0 °F 56% 29.92 in 6.2 mi South 6.7 mph - N/A   Mostly Cloudy
5:45 PM 64.4 °F 50.0 °F 59% 29.92 in 6.2 mi South 6.7 mph - N/A   Mostly Cloudy
6:15 PM 64.4 °F 48.2 °F 56% 29.92 in 6.2 mi South 8.9 mph - N/A   Mostly Cloudy
6:32 PM 62.6 °F 50.0 °F 63% 29.95 in 6.2 mi WSW 11.2 mph 26.8 mph N/A   Mostly Cloudy
6:36 PM 60.8 °F 51.8 °F 72% 29.95 in 6.2 mi WNW 13.4 mph 26.8 mph N/A Thunderstorm Mostly Cloudy
6:45 PM 59.0 °F 51.8 °F 77% 29.95 in 6.2 mi WNW 13.4 mph 26.8 mph N/A Thunderstorm Mostly Cloudy
6:59 PM 57.2 °F 51.8 °F 82% 29.98 in 6.2 mi WNW 11.2 mph - N/A Rain , Thunderstorm Light Thunderstorms and Rain
7:15 PM 55.4 °F 51.8 °F 88% 29.98 in 6.2 mi WNW 11.2 mph - N/A Rain , Thunderstorm Light Thunderstorms and Rain
7:34 PM 55.4 °F 51.8 °F 88% 29.98 in 6.2 mi North 8.9 mph - N/A Rain Light Rain Showers
7:45 PM 55.4 °F 51.8 °F 88% 29.98 in 6.2 mi North 6.7 mph - N/A Rain Light Rain Showers
8:15 PM 55.4 °F 51.8 °F 88% 30.01 in 6.2 mi NW 8.9 mph - N/A Rain Light Rain Showers
8:45 PM 53.6 °F 51.8 °F 94% 30.01 in 6.2 mi North 6.7 mph - N/A Rain Light Rain Showers
9:15 PM 53.6 °F 53.6 °F 100% 30.01 in 6.2 mi North 6.7 mph - N/A Rain Light Rain
9:45 PM 53.6 °F 51.8 °F 94% 30.01 in 6.2 mi North 2.2 mph - N/A Rain Light Rain
10:15 PM 53.6 °F 53.6 °F 100% 30.01 in 6.2 mi NE 2.2 mph - N/A Rain Light Rain
10:45 PM 55.4 °F 51.8 °F 88% 30.01 in 6.2 mi North 4.5 mph - N/A Rain Light Rain
11:15 PM 53.6 °F 51.8 °F 94% 30.01 in 6.2 mi North 2.2 mph - N/A Rain Light Rain
11:27 PM 53.6 °F 51.8 °F 94% 30.01 in - NNW 2.2 mph - N/A   Clear
11:45 PM 53.6 °F 51.8 °F 94% 30.01 in - NW 6.7 mph - N/A   Clear